Weather Roundup
Issued by NWS

Home | Current Version | Previous Version | Text Only | Print | Product List | Glossary On
Versions: 1 2 3 4 5 6 7 8 9 10 11 12 13 14 15 16 17 18 19 20 21 22 23 24 25 26 27 28 29 30 31 32 33 34 35 36 37 38 39 40 41 42 43 44 45 46 47 48 49 50
000
NZUS93 KARX 252010
HRRWXR

CURRENT HOURLY OBSERVATIONS ACROSS
MUCH OF THE UPPER MISSISSIPPI VALLEY
NATIONAL WEATHER SERVICE LA CROSSE WI
300 PM CDT TUE APR 25 2017


...SOUTHEAST MINNESOTA...


CITY           SKY/WX    TMP DP  RH WIND       PRES   REMARKS
ROCHESTER      LGT RAIN  52  51  97 N7        29.57S FOG
ROCHESTER/MAYO CLOUDY    53  51  93 CALM      29.57R
WINONA         CLOUDY    63  50  63 CALM      29.55R
AUSTIN         RAIN      50  46  87 N6        29.56R
ALBERT LEA     RAIN      46  46 100 NE5       29.56R
DODGE CENTER   LGT RAIN  50  48  93 N6        29.56R
PRESTON        CLOUDY    57  51  81 N6        29.57R
OWATONNA       LGT RAIN  48  45  87 N5        29.56S
FARIBAULT      RAIN      48  46  93 CALM      29.57
$$

...ELSEWHERE IN MINNESOTA...


CITY           SKY/WX    TMP DP  RH WIND       PRES   REMARKS
MINNEAPOLIS    LGT RAIN  53  47  79 VRB6      29.57S
INTNL FALLS    CLOUDY    32  26  78 NE13G23   29.79S WCI  22
DULUTH         CLOUDY    54  41  61 SE13      29.60S
RED WING       RAIN      55  48  76 W6        29.57R
REDWOOD FALLS  LGT RAIN  46  41  82 NW10      29.55F
MANKATO        LGT RAIN  45  44  97 NE6       29.56F
WORTHINGTON    LGT RAIN  40  39  97 N16       29.56R WCI  31
FAIRMONT       LGT RAIN  43  42  97 NE8       29.56R
$$

...SOUTHWEST WISCONSIN...


CITY           SKY/WX    TMP DP  RH WIND       PRES   REMARKS
LA CROSSE      LGT RAIN  68  50  52 CALM      29.54S
PRAIRIE DU CHI CLOUDY    69  48  46 E3        29.52R
BOSCOBEL       CLOUDY    70  46  42 E6        29.51F
LONE ROCK      CLOUDY    69  44  40 SE7       29.53F
PLATTEVILLE    CLOUDY    71  47  42 SE16      29.53F
FORT MC COY    LGT RAIN  70  44  39 S3        29.55S
CAMP DOUGLAS   CLOUDY    72  41  33 S8        29.54F
MAUSTON-NEW LI CLOUDY    73  42  33 S9        29.54F
VIROQUA        MOCLDY    67  44  42 S6        29.54F
WIS DELLS      CLOUDY    71  38  30 S14       29.56S
$$

...ELSEWHERE IN WISCONSIN...


CITY           SKY/WX    TMP DP  RH WIND       PRES   REMARKS
MILWAUKEE      CLOUDY    68  52  56 SE16      29.64F
MADISON        CLOUDY    71  40  32 S13       29.57F
GREEN BAY      CLOUDY    72  53  51 SE15      29.61F
EAU CLAIRE     LGT RAIN  69  44  40 SE18      29.53R
BLACK RVR FLS  LGT RAIN  72  39  30 SW7       29.54R
MEDFORD        CLOUDY    68  43  39 S10G16    29.56S
WAUSAU         MOSUNNY   74  36  25 S10G21    29.55S
WIS RAPIDS     MOSUNNY   77  39  25 S8        29.56F
MARSHFIELD     CLOUDY    73  37  27 S15       29.55S
RICE LAKE      CLOUDY    72  40  31 SE5       29.54S
$$

...NORTHEAST IOWA...


CITY           SKY/WX    TMP DP  RH WIND       PRES   REMARKS
WATERLOO       CLOUDY    70  51  51 SE8       29.48F
DUBUQUE        PTSUNNY   72  43  35 S22G28    29.52F
DECORAH        CLOUDY    64  50  59 E3        29.53S
MASON CITY     LGT RAIN  52  48  86 N12       29.54F
CHARLES CITY   CLOUDY    61  52  72 N7        29.53S
OELWEIN        CLOUDY    72  46  40 SE17      29.50F
$$

...ELSEWHERE IN IOWA...


CITY           SKY/WX    TMP DP  RH WIND       PRES   REMARKS
DES MOINES     CLOUDY    73  48  41 SE14      29.42F
IOWA CITY      MOSUNNY   75  46  35 SE17G25   29.48F
FORT DODGE     PTSUNNY   54  45  71 NE15      29.50F
MARSHALLTOWN   CLOUDY    71  52  50 E12       29.45F
CEDAR RAPIDS   MOSUNNY   75  47  36 SE16G26   29.46F
$$

...NORTHERN ILLINOIS...


CITY           SKY/WX    TMP DP  RH WIND       PRES   REMARKS
CHICAGO-OHARE  CLOUDY    74  48  39 S14G21    29.61F
CHICAGO-MIDWAY CLOUDY    77  48  35 S10G21    29.61F
MOLINE         PTSUNNY   79  45  29 SE17G28   29.49F
ROCKFORD       CLOUDY    76  49  38 SE17      29.57F
PEORIA         PTSUNNY   79  42  26 SE17G29   29.52F
$$

NOTE: "FAIR" INDICATES FEW OR NO CLOUDS BELOW 12,000 FEET WITH NO
SIGNIFICANT WEATHER AND/OR OBSTRUCTIONS TO VISIBILITY. WIND
SPEEDS ARE IN MILES-PER-HOUR.




USA.gov is the U.S. government's official web portal to all federal, state and local government web resources and services.